Weather History for Casper, WY

Change the Weather History Date:

Friday, March 15, 2013

  Actual Average Record
Temperature  
Mean Temperature 53 °F 35 °F  
Max Temperature 68 °F 48 °F 70 °F (1994)
Min Temperature 37 °F 22 °F -2 °F (1943)
Degree Days  
Heating Degree Days 12 30  
Month to date heating degree days 441 480  
Since 1 July heating degree days 5491 5928  
Cooling Degree Days 0 0  
Month to date cooling degree days 0 0  
Year to date cooling degree days 0 0  
Growing Degree Days 4 (Base 50)    
Moisture  
Dew Point 20 °F    
Average Humidity 30    
Maximum Humidity 45    
Minimum Humidity 14    
Precipitation  
Precipitation 0.00 in 0.03 in 0.33 in (1986)
Month to date precipitation 0.22 0.35  
Year to date precipitation 0.99 1.43  
Snow  
Snow 0.00 in 0.30 in - ()
Month to date snowfall 3.4 4.8  
Since 1 July snowfall 36.1 54.2  
Snow Depth 0.00 in    
Sea Level Pressure  
Sea Level Pressure 29.84 in    
Wind  
Wind Speed 13 mph (WNW)    
Max Wind Speed 26 mph    
Max Gust Speed 33 mph    
Visibility 10 miles    
Events      
T = Trace of Precipitation, MM = Missing Value Source: NWS Daily Summary

Daily Weather History Graph

Daily Weather History Graph

Search for Another Location

Airport:

Trip Planner

Search our weather history database for the weather conditions in past years. The results will help you decide how hot, cold, wet, or windy it might be!

Date:

Astronomy

Mar. 15, 2013 Rise Set
Actual Time 7:17 AM MDT 7:12 PM MDT
Civil Twilight 6:49 AM MDT 7:40 PM MDT
Nautical Twilight 6:16 AM MDT 8:13 PM MDT
Astronomical Twilight 5:42 AM MDT 8:47 PM MDT
Moon 9:02 AM MDT (3/15) 11:36 PM MDT (3/15)
Length of Visible Light 12h 51m
Length of Day
11h 55m
Waxing Crescent, 16% of the Moon is Illuminated
Mar 15
Waxing Crescent
Mar 19
First Quarter
Mar 27
Full
Apr 2
Last Quarter
Apr 10
New

Hourly Weather History & Observations

Time (MDT) Temp. Windchill Dew Point Humidity Pressure Visibility Wind Dir Wind Speed Gust Speed Precip Events Conditions
12:53 AM 52.0 °F - 25.0 °F 35% 29.91 in 10.0 mi SW 17.3 mph 23.0 mph N/A   Clear
1:53 AM 50.0 °F - 26.1 °F 39% 29.89 in 10.0 mi SW 10.4 mph - N/A   Clear
2:53 AM 48.0 °F - 23.0 °F 37% 29.87 in 10.0 mi WSW 6.9 mph - N/A   Clear
3:53 AM 51.1 °F - 19.9 °F 29% 29.85 in 10.0 mi WSW 13.8 mph - N/A   Clear
4:53 AM 50.0 °F - 19.9 °F 31% 29.85 in 10.0 mi WSW 10.4 mph - N/A   Clear
5:53 AM 48.9 °F - 19.9 °F 32% 29.85 in 10.0 mi SW 13.8 mph - N/A   Clear
6:53 AM 46.9 °F - 21.0 °F 36% 29.87 in 10.0 mi SW 15.0 mph - N/A   Clear
7:53 AM 46.9 °F - 21.0 °F 36% 29.88 in 10.0 mi SW 11.5 mph - N/A   Clear
8:53 AM 50.0 °F - 23.0 °F 35% 29.87 in 10.0 mi WSW 13.8 mph - N/A   Clear
9:53 AM 55.0 °F - 21.9 °F 28% 29.88 in 10.0 mi WSW 13.8 mph - N/A   Clear
10:53 AM 60.1 °F - 19.9 °F 21% 29.87 in 10.0 mi West 16.1 mph - N/A   Clear
11:53 AM 64.0 °F - 17.1 °F 16% 29.84 in 10.0 mi WNW 16.1 mph 23.0 mph N/A   Clear
12:53 PM 64.9 °F - 15.1 °F 15% 29.79 in 10.0 mi WNW 24.2 mph 32.2 mph N/A   Clear
1:53 PM 66.9 °F - 16.0 °F 14% 29.77 in 10.0 mi WNW 15.0 mph 25.3 mph N/A   Clear
2:53 PM 66.9 °F - 15.1 °F 14% 29.74 in 10.0 mi WNW 18.4 mph 32.2 mph N/A   Clear
3:53 PM 64.0 °F - 15.1 °F 15% 29.73 in 10.0 mi WNW 17.3 mph 25.3 mph N/A   Mostly Cloudy
4:53 PM 61.0 °F - 17.1 °F 18% 29.75 in 10.0 mi NW 6.9 mph - N/A   Overcast
5:53 PM 62.1 °F - 19.0 °F 19% 29.75 in 10.0 mi West 8.1 mph - N/A   Mostly Cloudy
6:18 PM 59.0 °F - 17.6 °F 20% 29.87 in 10.0 mi North 6.9 mph - N/A   Mostly Cloudy
6:53 PM 57.0 °F - 18.0 °F 22% 29.79 in 10.0 mi NNW 12.7 mph 23.0 mph N/A   Mostly Cloudy
7:53 PM 52.0 °F - 21.0 °F 30% 29.84 in 10.0 mi NNE 16.1 mph - N/A   Clear
8:53 PM 50.0 °F - 19.9 °F 31% 29.88 in 10.0 mi NNE 12.7 mph - N/A   Mostly Cloudy
9:53 PM 46.0 °F 43.1 °F 19.0 °F 34% 29.90 in 10.0 mi NNE 5.8 mph - N/A   Partly Cloudy
10:53 PM 45.0 °F 37.9 °F 24.1 °F 44% 29.90 in 10.0 mi ENE 16.1 mph - N/A   Mostly Cloudy
11:53 PM 39.9 °F 33.9 °F 25.0 °F 55% 29.94 in 10.0 mi ENE 9.2 mph - N/A   Clear